COSMOS 887

导读

COSMOS 887(宇宙887)是苏联(CIS)“宇宙”系列卫星,于1976年12月28日08:00发射升空。作为冷战时期苏联航天活动的产物,该系列卫星多承担军事侦察、技术试验或空间监视任务。它延续了苏联宇宙系列卫星的发展路线,是当时苏联推进空间军事能力建设的组成部分,完成任务后已再入大气层销毁,见证了冷战时期太空竞赛背景下苏联航天技术的发展水平。

基本信息
目录编号:
9637
目录名称:
COSMOS 887
国际标识:
1976-128A
轨道中心:
EARTH
卫星名称:
COSMOS 887
卫星全名:
--
卫星状态:
在轨 (已飞行18063 天)
发射日期:
1976-12-28 UTC
国别 :
俄罗斯(独联体) (CIS)
星等 :
--
轨道信息
数据来源 国际轨道数据 AOE轨道数据
星历时间 2026-06-12T14:17:55+0800
13小时前
查看轨道信息
2026-06-11T02:00:00+0800
2天前
查看轨道信息
半长轴 7354.446km 7354.461km
偏心率 0.0043537 0.0043285
轨道倾角 82.939° 82.940°
近地点辐角 259.223° 263.573°
升交点赤经 164.447° 165.569°
平近点角 111.764° 176.842°
近地点 944.289km 944.49km
远地点 1008.329km 1008.158km
周期 104.613分钟 104.613分钟
每日圈数 13.765053 13.765009
详细信息
使用方式:
暂无
2D轨道图
3D轨道图
轨道高度分析图
轨道倾角分析图
轨道综合分析图
查看轨道综合分析图